Theta_e
289 288 287 287 286 285 285 286 286 286 286 285 286 286 287 287 288 287 288 288 288 288 288 287 287 286 286 285 285 285 285 286 286 286 286 286 286 286 286 285 285 284 284 284 283 282 282 282 282 282 282 282 281 281 281 281 282 281 281 281 280 279 280 282 282 283 282 283 287 288 289 292 292 293 293 294 295 296 296 297 297 297 298 298 299
286 286 286 286 285 285 285 285 286 284 284 284 286 286 286 286 287 288 288 287 288 287 288 288 287 287 286 285 285 285 284 284 284 285 285 286 286 286 285 285 284 284 283 283 283 282 282 281 281 281 281 281 281 282 281 281 281 280 280 279 281 279 279 281 282 283 283 284 283 285 287 290 292 292 292 293 294 295 296 296 297 297 297 298 299
285 286 286 285 285 285 284 285 285 286 285 285 286 286 286 286 287 287 287 287 287 287 287 287 287 287 286 286 285 284 285 284 284 285 285 285 285 284 284 284 284 283 283 283 282 282 281 281 281 281 281 281 280 280 280 280 280 280 279 278 278 279 279 281 281 283 281 282 283 283 283 285 289 291 292 293 294 296 296 296 297 298 299 301 304
285 285 285 285 285 284 284 284 284 284 285 284 284 285 285 286 286 286 287 287 287 287 288 287 287 286 286 285 285 284 284 285 285 285 285 284 284 284 284 284 283 283 283 282 282 282 281 281 281 281 280 281 280 279 279 279 279 279 279 279 278 276 278 278 281 281 280 279 278 284 283 283 281 286 289 291 294 294 294 294 296 296 296 297 297
286 285 285 285 284 284 284 284 284 284 284 284 284 285 285 286 286 286 286 286 286 288 288 288 287 286 285 284 284 283 284 283 283 282 283 283 283 283 283 283 283 282 282 282 281 281 281 281 280 280 280 280 280 279 279 279 279 279 279 278 278 277 276 278 279 280 280 281 280 279 280 281 283 285 286 286 290 291 293 295 295 295 296 297 298
287 286 286 285 285 285 284 284 284 284 284 285 285 286 286 286 286 286 286 286 286 286 287 286 287 285 283 282 281 281 280 280 280 280 281 281 281 282 282 282 281 281 281 281 281 281 280 281 280 280 280 280 280 279 279 279 279 278 279 278 278 278 277 276 276 279 279 280 281 282 282 280 281 283 283 279 289 290 291 292 293 294 295 295 295
287 287 286 285 285 284 284 284 284 284 284 285 285 285 285 286 285 285 286 286 286 286 285 286 284 284 282 282 282 281 280 281 281 282 281 282 282 281 281 281 281 280 281 280 280 280 280 280 280 280 280 279 280 279 278 278 278 279 279 278 278 278 278 275 275 276 278 278 279 280 281 283 284 282 280 283 280 285 289 290 292 294 295 295 296
286 286 286 286 285 284 284 284 284 284 285 284 284 284 284 285 284 285 285 286 285 286 284 286 284 283 282 282 282 281 281 281 281 281 282 282 281 281 280 280 280 280 280 280 280 280 280 280 280 279 279 279 279 278 278 278 278 279 279 278 278 278 277 276 275 276 275 275 279 278 279 281 282 284 285 283 281 280 283 289 291 292 293 294 294
287 286 286 286 285 285 285 284 284 284 284 284 284 284 284 284 284 284 284 286 285 285 284 283 285 283 283 282 281 282 281 281 281 282 281 281 279 279 279 279 279 279 279 279 279 279 279 279 279 279 278 278 278 278 278 278 278 277 277 277 277 277 277 277 276 275 276 275 276 276 278 279 281 283 285 286 283 281 281 282 284 289 292 293 294
286 287 287 286 286 285 285 285 284 284 284 285 284 284 284 283 284 283 284 284 284 283 285 283 283 284 282 281 280 280 280 280 280 279 279 279 278 278 278 278 278 278 278 279 279 279 278 278 278 278 278 278 278 278 278 277 277 277 277 277 277 276 277 276 276 276 276 276 276 276 277 279 281 282 283 283 284 285 281 282 284 285 285 289 294
286 286 286 286 286 285 284 284 283 283 283 284 284 284 283 283 283 283 284 283 283 283 282 282 282 282 281 281 280 280 280 279 278 278 278 277 277 277 277 277 277 277 277 277 278 278 277 278 277 277 277 277 277 277 276 276 277 277 277 277 276 276 276 276 276 276 276 276 276 276 275 275 276 278 280 283 283 282 282 283 285 287 288 288 291
285 284 284 284 283 283 283 283 283 283 282 283 283 283 283 283 283 283 282 282 282 282 281 281 281 281 281 281 280 280 279 278 277 277 277 276 276 276 276 276 276 277 276 276 276 277 277 276 277 276 276 276 276 276 276 276 276 276 276 276 276 276 276 276 275 275 275 275 275 275 275 276 276 277 279 281 282 282 283 282 283 285 287 289 292
284 284 284 283 283 282 282 282 282 282 282 282 283 283 283 282 282 283 282 282 281 281 281 281 280 280 280 280 279 279 279 278 277 276 277 276 276 275 275 275 275 275 275 275 276 276 276 275 275 275 275 276 276 276 276 276 276 276 275 275 275 275 275 275 274 275 275 274 274 275 275 275 275 277 278 280 282 283 283 281 283 285 283 285 289
283 283 283 283 283 283 282 282 282 282 282 282 282 282 282 282 282 282 283 281 281 280 280 280 280 280 280 279 279 278 278 277 277 276 276 276 276 275 275 274 274 274 274 274 275 275 275 275 275 275 275 275 275 275 275 276 276 275 275 275 274 275 275 275 275 275 275 275 275 274 275 275 275 276 276 277 278 280 280 280 280 282 283 283 287
282 283 283 283 283 283 282 282 283 283 282 282 282 282 282 282 281 282 281 280 280 280 280 279 279 279 279 279 278 278 277 277 276 277 276 275 275 274 274 274 274 274 274 274 275 274 274 274 275 274 275 275 275 275 275 275 275 275 274 274 274 275 274 275 274 274 274 274 275 274 274 275 275 275 275 275 276 278 280 280 280 278 279 282 284
282 282 282 282 283 283 283 282 282 282 282 282 282 282 281 282 281 282 282 280 280 280 280 279 279 278 278 277 277 277 277 277 276 276 275 275 274 274 273 273 274 274 274 274 274 274 274 274 274 274 274 274 274 274 274 274 274 274 274 274 273 275 274 274 274 274 274 274 274 274 274 273 274 274 275 275 275 277 279 280 281 280 278 276 281
281 282 282 282 282 282 283 282 282 282 282 282 282 282 282 281 281 280 280 279 279 280 279 279 278 277 277 277 276 276 275 275 274 274 274 274 274 273 273 273 273 273 273 274 273 274 274 274 273 273 273 274 274 274 274 274 274 273 273 273 273 274 274 274 274 274 274 274 274 274 273 273 274 275 275 276 277 278 278 279 281 280 280 278 278
282 282 282 282 282 282 282 282 282 282 282 282 282 281 282 282 281 280 279 278 278 278 278 278 277 277 276 276 275 275 274 274 274 273 273 273 273 273 273 272 272 273 273 273 273 273 273 273 273 273 273 273 273 273 273 273 273 273 273 273 273 274 273 274 274 274 273 274 273 274 274 273 274 275 275 275 276 277 279 280 280 280 281 279 279
280 280 281 281 281 281 281 282 282 282 282 282 281 281 281 281 280 280 279 279 278 278 278 278 277 276 276 275 274 274 274 273 273 273 272 272 271 272 272 272 272 273 272 272 272 272 272 272 272 272 272 272 273 273 273 272 272 272 272 272 273 273 273 273 273 273 273 273 273 272 273 273 273 273 273 274 275 275 276 278 279 281 282 282 281
281 281 281 281 281 281 281 281 281 281 281 281 280 280 279 279 279 279 278 278 277 277 277 276 276 275 275 274 273 273 273 272 272 271 271 271 271 271 271 272 272 272 272 272 272 271 271 271 271 271 271 271 271 271 271 271 270 271 271 271 271 272 271 271 272 273 273 273 272 272 273 273 273 275 275 275 277 278 278 278 279 280 281 282 283
281 281 281 281 281 280 280 281 281 281 281 280 279 279 279 278 278 278 277 276 276 276 275 275 275 274 273 272 272 272 271 271 271 271 271 271 271 272 271 271 271 271 271 271 271 271 271 271 270 270 270 269 269 269 269 269 269 269 269 270 270 270 270 270 271 272 272 272 272 272 272 272 273 273 273 273 274 276 278 279 280 281 281 283 284
282 281 281 281 280 280 280 280 280 279 279 278 279 279 278 277 277 277 276 276 275 275 274 274 273 273 272 271 271 271 270 270 270 270 270 270 271 271 271 271 270 271 271 270 270 270 270 269 269 268 268 268 268 268 268 268 268 268 268 269 269 269 268 269 269 270 271 272 272 272 272 272 273 272 273 273 273 273 275 279 281 281 282 283 285
282 281 281 280 280 280 279 279 279 279 279 278 278 278 277 277 276 276 275 275 275 274 274 273 272 271 270 270 270 270 270 270 269 270 270 270 270 270 270 270 270 270 270 269 269 269 268 268 268 267 267 267 267 267 267 267 267 267 267 267 268 268 267 267 268 268 269 270 270 271 271 272 273 272 273 273 274 274 275 276 278 281 282 283 285
281 280 280 280 279 279 279 279 279 278 278 278 278 277 277 276 275 275 274 274 273 272 272 271 270 270 270 269 269 269 269 269 269 269 269 269 269 270 270 269 269 269 268 268 268 268 267 267 267 267 267 267 266 267 267 267 267 267 266 267 267 267 267 267 267 268 268 269 269 269 270 272 273 272 272 273 274 274 275 277 279 281 282 283 285
279 279 279 279 278 278 278 279 279 279 278 278 277 276 276 275 274 274 273 272 272 271 270 270 269 268 268 268 268 268 268 268 268 269 269 269 269 269 269 268 268 267 267 267 267 267 266 266 265 265 266 266 266 266 266 267 266 268 267 266 267 267 267 267 267 268 269 269 269 269 270 271 272 272 272 272 273 274 277 279 280 281 282 283 285
279 279 278 278 278 278 279 279 279 279 278 277 276 276 275 274 273 273 272 271 270 270 269 268 268 268 268 268 268 268 268 268 268 268 268 268 268 268 267 267 267 266 266 266 265 265 265 265 265 265 265 266 266 266 266 266 267 266 267 267 267 267 267 267 268 268 268 269 269 269 270 271 271 270 270 271 272 272 273 274 277 281 282 284 285
279 279 278 278 278 278 278 278 279 278 277 277 275 274 273 273 272 271 271 270 269 269 268 267 267 267 267 267 267 268 268 268 268 268 268 268 267 267 266 266 266 265 264 264 264 264 265 265 265 265 265 266 266 266 266 267 267 267 267 267 267 267 267 268 268 268 269 269 269 269 270 270 270 270 271 271 271 271 272 272 274 276 280 283 284
278 278 278 278 278 278 278 278 278 277 276 275 274 273 272 271 270 269 269 268 268 267 266 266 266 266 266 267 267 267 267 267 267 267 267 266 266 266 265 265 265 264 264 264 264 264 264 265 265 265 266 266 266 266 267 267 267 267 267 267 267 268 268 268 269 269 269 269 270 270 270 271 271 271 271 271 272 271 272 273 275 277 277 279 282
278 278 278 278 278 278 278 277 277 276 275 274 272 271 270 270 269 268 268 267 267 266 266 265 265 265 266 266 267 267 267 267 266 266 265 265 265 264 264 264 263 263 264 264 264 264 264 265 265 266 266 267 266 266 267 267 267 268 268 269 269 269 269 269 269 269 269 270 270 271 271 271 272 274 275 275 275 275 273 273 276 278 278 279 280
278 278 278 278 278 278 277 277 276 275 274 272 271 270 269 268 268 267 267 266 266 265 265 265 265 265 265 266 265 265 265 265 264 264 264 263 263 263 263 262 262 263 263 264 264 265 265 265 265 266 266 266 266 267 268 272 273 270 270 271 271 272 272 272 271 270 270 271 271 271 272 274 275 275 276 276 277 278 278 277 276 277 278 279 281
279 279 278 278 278 277 277 276 276 275 274 272 271 269 269 268 267 266 266 266 265 264 264 264 264 265 265 265 265 264 264 263 263 263 262 262 262 262 261 261 262 262 263 264 264 264 265 265 265 265 265 265 266 266 271 273 274 275 273 271 271 272 273 273 273 272 272 272 273 273 273 274 274 276 275 277 278 279 279 280 280 280 280 279 279
280 279 278 278 277 277 276 276 276 275 273 271 270 268 268 267 267 266 265 265 264 264 264 264 264 264 264 264 264 263 262 262 261 261 261 261 261 260 261 261 261 262 263 264 264 264 264 265 265 265 265 265 265 269 272 273 274 275 276 273 273 273 273 273 274 274 273 273 273 273 274 274 274 274 274 274 275 277 278 279 280 281 282 282 283
281 279 278 278 278 277 277 277 276 274 273 271 269 268 267 267 266 265 265 264 263 263 263 263 263 263 263 263 262 261 260 260 260 260 260 260 260 260 260 261 261 262 263 263 264 264 264 264 264 264 264 265 265 269 272 273 274 276 277 276 273 274 274 274 274 274 274 274 274 274 274 274 275 276 276 275 275 275 277 278 279 280 281 283 284
282 280 279 279 278 278 277 277 276 274 273 270 269 268 267 266 265 264 263 263 263 263 262 262 262 262 262 261 260 260 259 259 259 259 259 259 259 259 260 261 262 262 262 262 262 263 263 263 263 263 264 264 265 268 272 274 275 276 277 277 274 274 274 275 275 275 275 275 275 274 274 274 275 275 275 275 275 275 275 275 276 278 278 280 282
282 279 279 279 278 278 277 276 274 272 270 268 267 266 265 264 264 263 263 263 262 262 262 262 261 261 261 260 260 259 258 258 259 259 259 259 259 260 260 261 261 262 261 261 262 262 262 262 262 263 263 263 264 270 273 275 275 277 277 277 274 274 274 274 274 274 275 275 276 276 275 275 275 275 275 275 274 274 274 274 275 276 279 280 281
282 280 279 279 278 277 276 275 273 270 267 267 265 265 264 263 263 263 262 262 261 260 261 261 260 260 259 259 259 258 258 258 258 258 258 258 259 260 260 260 261 261 261 262 262 262 261 261 262 262 263 263 265 271 273 275 276 277 278 274 273 273 273 273 273 274 274 275 276 276 276 275 275 275 277 279 278 276 275 274 274 276 279 281 282
283 282 280 280 279 278 276 273 269 267 266 265 264 263 263 262 261 261 261 261 260 259 260 260 259 259 259 258 258 258 257 257 257 257 257 258 259 259 260 260 260 260 260 260 260 261 261 262 262 262 263 264 265 269 273 275 275 277 276 273 272 272 272 272 273 274 274 275 276 276 276 276 275 275 277 279 279 279 275 274 274 275 276 279 281
282 280 279 278 277 276 272 268 267 266 265 264 263 263 262 261 260 260 260 260 259 259 260 259 258 258 258 258 258 257 256 257 257 257 257 258 259 259 259 260 259 259 259 260 260 260 261 262 262 263 264 265 266 270 273 274 275 276 276 272 271 271 271 272 272 273 274 275 275 278 278 277 276 275 278 280 280 278 276 275 275 275 276 276 278
280 279 277 276 274 271 268 267 265 264 264 263 262 262 261 260 260 260 260 260 259 259 259 258 258 258 258 257 257 256 256 256 256 257 257 257 258 258 259 259 259 259 259 260 260 260 261 263 264 265 268 268 267 269 272 274 275 276 274 272 272 271 270 271 271 272 274 274 275 277 278 278 278 278 280 280 280 279 276 276 276 276 276 276 278
278 277 277 273 269 267 266 265 264 263 263 262 262 262 261 260 260 260 260 260 260 259 259 258 258 258 257 256 256 256 255 255 256 256 257 257 258 258 259 259 259 259 259 259 260 261 261 263 265 266 267 267 267 268 270 274 275 276 276 273 272 271 270 271 271 272 272 274 275 276 277 280 281 281 282 282 281 281 277 276 276 277 277 278 281
276 274 273 268 268 267 265 265 264 263 262 262 262 261 260 260 260 260 260 260 260 259 258 257 257 256 256 256 256 255 254 255 256 256 257 257 258 258 258 258 257 258 258 259 259 261 263 264 265 266 267 268 268 268 269 274 274 275 276 275 272 272 272 272 272 272 273 273 273 275 276 279 281 281 282 282 282 282 281 279 278 277 278 281 283
273 272 269 268 268 266 264 263 263 262 261 261 262 261 260 260 260 260 260 260 258 258 257 256 255 255 255 254 254 255 255 255 256 256 256 256 257 257 257 257 257 257 257 258 260 262 263 264 265 267 267 267 269 271 269 272 274 275 276 276 273 272 273 273 272 272 272 273 274 275 275 278 280 281 281 282 282 282 282 280 279 282 282 283 282
269 268 269 268 265 264 263 262 261 261 261 262 262 261 260 260 260 260 259 258 257 257 256 255 254 253 253 253 253 253 254 255 255 255 255 255 256 256 256 256 256 257 257 259 260 262 263 263 265 266 267 267 268 269 272 270 273 275 276 276 276 275 276 274 272 271 272 273 274 275 276 278 280 280 281 282 282 283 282 281 283 283 283 284 284
268 268 268 266 264 263 262 261 261 261 261 262 261 260 260 260 261 259 258 257 256 255 255 253 253 252 252 253 253 253 254 253 253 254 254 254 255 255 256 256 256 257 258 259 261 262 263 264 264 265 266 267 268 268 270 272 271 274 275 276 276 276 276 273 273 272 272 273 273 274 275 278 279 280 282 283 283 282 281 282 283 284 284 284 283
267 267 267 265 263 262 261 260 261 260 261 261 261 261 260 260 259 258 257 256 255 253 252 251 251 252 252 252 252 253 253 252 253 253 254 254 254 254 254 255 256 257 258 259 261 261 263 264 264 264 265 266 267 267 268 270 273 274 275 275 275 276 275 276 272 272 273 273 275 278 279 279 280 281 282 283 283 282 283 283 283 283 283 283 283
266 266 265 264 262 261 260 260 260 260 260 260 261 261 260 260 258 258 257 255 253 251 251 250 251 251 251 252 253 253 253 254 253 254 253 254 254 254 254 255 256 257 259 259 260 262 264 264 264 264 265 265 266 267 268 268 270 272 272 273 274 274 274 274 274 273 275 276 277 278 278 279 279 280 280 281 281 280 282 282 283 283 282 282 282
265 265 264 262 261 260 260 260 259 259 259 260 259 260 260 258 257 257 256 253 251 251 252 251 251 251 252 253 254 254 255 254 253 253 254 254 254 254 254 255 257 258 259 259 261 263 263 263 263 264 265 265 265 267 267 268 269 270 270 270 270 270 272 273 271 271 273 272 272 274 276 278 278 280 282 283 282 281 281 281 282 283 283 283 284
266 265 263 262 262 261 260 259 259 259 259 258 258 258 257 257 256 255 253 252 251 252 252 251 251 253 253 253 253 255 254 253 253 252 253 253 254 255 255 257 258 258 258 260 263 263 263 263 263 264 264 264 265 266 267 268 269 269 269 269 269 269 269 270 270 270 270 270 270 274 277 278 278 279 281 282 281 281 281 282 282 283 283 284 285
265 264 263 262 262 261 260 260 259 258 258 257 257 256 256 256 255 253 252 251 252 253 252 252 252 253 253 254 253 251 252 252 253 253 253 254 253 254 257 259 261 262 263 264 264 264 264 265 265 264 264 264 265 266 267 272 270 273 270 268 267 268 269 269 271 274 268 268 268 269 269 270 274 279 281 280 280 280 281 282 282 283 283 284 285
264 263 263 263 262 261 260 259 258 258 257 257 256 255 255 256 254 253 252 252 252 251 252 252 253 253 253 253 252 251 251 253 252 252 252 254 257 262 262 261 261 266 268 269 269 265 266 266 265 266 266 265 265 267 272 273 273 273 273 273 272 272 272 271 273 272 268 265 265 266 266 267 268 269 272 275 279 280 281 281 282 283 284 284 284
263 262 262 262 261 261 260 259 258 257 256 256 255 255 255 254 254 253 252 252 252 252 252 252 252 252 254 253 252 252 252 251 251 252 252 252 253 255 261 264 265 266 266 268 268 269 269 269 267 265 267 271 272 272 273 273 273 273 272 272 271 271 272 272 272 267 264 263 263 264 264 265 266 267 268 268 270 272 276 281 283 284 284 284 285
Wind_Speed
8 9 10 11 11 10 10 9 9 10 10 10 9 9 9 9 8 8 6 5 5 4 3 3 3 2 2 2 3 3 3 3 4 4 4 4 4 4 5 5 5 6 6 6 5 4 4 5 5 5 5 6 6 7 7 8 7 8 8 7 9 10 8 6 8 10 13 13 10 13 14 12 15 16 16 15 14 14 13 14 14 14 15 15 15
7 8 10 10 11 10 9 9 11 13 10 9 11 11 11 9 10 9 7 6 7 6 5 4 4 3 3 3 3 2 3 3 4 3 4 3 4 4 4 5 6 6 6 6 5 5 5 5 5 6 6 7 7 7 8 8 8 7 8 9 5 8 9 6 7 9 7 8 15 17 14 12 14 16 15 13 15 14 14 14 14 14 15 14 13
10 12 10 12 12 12 11 10 10 12 12 12 11 11 10 9 9 9 8 8 7 6 4 4 4 3 3 3 2 3 3 4 4 4 4 4 4 4 4 5 6 6 6 6 5 4 5 5 5 5 6 6 7 8 7 8 7 8 8 8 10 7 8 7 6 4 8 10 11 13 14 16 10 7 10 12 11 11 11 13 13 13 15 13 13
16 15 16 14 14 13 12 12 12 10 10 10 10 12 10 9 9 8 8 8 7 6 6 6 5 4 3 2 2 2 4 4 5 4 5 5 5 4 4 5 6 7 7 6 5 5 5 6 6 6 6 6 7 8 8 8 7 7 7 8 8 12 7 8 5 5 6 8 8 3 11 10 17 5 4 9 8 11 14 16 14 14 16 16 13
15 14 14 14 15 18 18 14 11 12 11 12 11 11 8 12 11 10 9 9 8 7 7 5 3 2 1 1 1 3 2 3 4 4 4 5 6 6 6 5 7 7 7 6 6 6 5 6 7 7 7 7 7 8 8 8 8 8 8 8 8 9 13 8 8 6 7 7 8 9 7 5 9 14 16 17 9 11 14 13 13 13 13 13 11
16 18 19 19 19 16 12 13 14 13 13 12 11 11 11 10 10 9 8 8 8 8 7 5 5 5 3 2 3 2 4 3 4 5 4 5 7 6 7 6 7 7 7 6 5 6 6 6 7 8 8 8 7 8 9 9 9 9 8 9 10 10 11 13 11 6 8 9 11 12 10 12 13 13 12 16 9 9 15 14 18 17 16 17 16
10 12 13 15 16 15 16 16 17 16 14 10 10 11 11 10 9 9 9 8 7 7 7 5 5 4 6 5 4 4 5 5 3 4 5 6 6 7 7 6 6 7 6 5 5 5 6 6 7 7 8 8 8 8 9 10 9 9 8 9 10 10 10 13 14 10 8 10 11 14 16 17 16 14 13 13 20 14 7 11 12 13 13 13 14
13 16 17 17 17 20 22 21 17 16 12 11 11 10 12 11 10 10 8 8 7 6 7 6 7 5 5 5 4 4 5 7 5 6 5 6 7 8 6 7 7 6 7 6 6 6 6 7 7 7 8 8 8 9 10 9 9 9 9 11 10 10 11 12 14 11 9 9 6 11 13 16 18 20 21 17 18 20 21 10 15 18 18 18 18
14 14 16 17 19 20 19 17 15 12 13 13 12 11 10 10 9 8 8 8 7 8 7 6 6 5 5 4 4 4 5 6 5 5 6 6 8 7 7 7 7 6 6 7 7 7 7 8 8 8 8 9 9 10 10 10 11 12 12 11 11 11 10 12 13 13 11 12 9 12 12 14 14 16 17 18 17 19 23 22 19 16 17 18 18
12 14 13 15 16 17 16 13 13 14 12 11 11 10 10 9 9 9 9 8 7 7 6 6 6 4 4 4 5 5 4 5 5 6 6 6 7 8 7 6 6 5 5 6 7 7 7 8 9 9 10 10 10 11 12 12 12 12 12 12 12 14 11 12 14 13 13 13 12 12 12 11 12 13 15 16 18 19 23 22 19 19 20 18 14
10 11 10 11 11 13 13 16 15 12 10 11 11 11 9 10 9 10 9 8 7 7 7 6 5 5 4 5 6 6 6 5 6 6 5 5 7 7 6 6 5 6 5 6 6 8 7 8 9 10 10 11 11 12 12 12 12 12 12 14 14 15 13 13 15 16 14 15 15 12 13 13 12 14 15 14 15 16 16 20 21 18 18 21 19
8 8 9 10 10 11 12 15 15 15 11 13 11 10 10 10 9 10 8 8 7 6 6 4 5 5 5 5 6 6 6 5 6 8 7 7 7 8 7 6 6 5 5 7 6 6 7 8 9 10 11 11 11 11 12 12 12 13 13 12 13 14 14 14 14 16 17 15 17 14 14 14 14 16 16 16 17 19 18 20 17 17 18 18 17
8 9 9 10 13 14 16 16 14 15 17 15 14 12 10 10 11 11 10 8 8 6 6 5 4 5 5 5 5 5 5 6 7 7 7 6 6 7 7 7 7 7 6 7 9 9 9 10 10 10 11 11 12 12 13 14 13 13 14 15 15 15 14 15 14 16 16 15 15 14 14 15 16 16 17 17 18 18 17 17 15 14 16 17 16
9 10 11 12 13 14 16 16 17 16 16 15 14 13 10 10 10 11 10 9 7 6 5 5 5 5 5 4 4 4 5 5 6 6 6 6 6 7 7 7 8 8 9 8 8 10 10 11 12 13 13 13 13 14 14 14 14 14 15 15 16 14 14 17 17 18 18 19 19 17 18 19 18 15 13 14 14 13 14 15 15 14 16 19 16
8 10 12 13 14 15 15 16 15 15 15 15 13 12 11 11 10 11 10 8 7 7 5 6 5 4 4 4 4 4 5 5 5 5 6 6 6 7 7 7 8 9 8 9 9 11 12 11 12 13 13 13 14 14 13 14 14 14 15 16 15 14 16 16 16 18 20 21 21 21 19 21 20 20 17 16 16 17 16 14 13 17 18 17 17
9 10 10 12 12 12 12 13 14 14 15 14 14 13 12 11 11 11 11 9 8 7 6 6 5 3 4 4 4 4 5 5 5 5 5 5 7 7 8 8 8 9 9 9 11 10 11 12 12 13 13 13 14 15 15 14 14 15 15 15 17 12 15 19 17 18 22 22 22 21 20 21 21 19 19 17 17 19 17 16 14 14 17 17 15
9 11 11 11 9 11 12 13 13 13 14 17 16 14 14 12 11 11 9 8 8 7 6 5 4 4 4 4 4 4 4 5 5 6 6 6 7 7 7 8 9 8 9 9 11 10 10 11 13 13 13 13 14 14 15 15 15 15 15 17 17 16 17 18 19 20 18 21 18 23 20 19 19 18 18 17 18 18 19 18 17 18 15 19 18
8 9 9 10 12 13 12 12 15 17 17 15 15 12 11 11 13 12 10 10 8 7 6 5 4 4 4 4 4 4 4 5 5 5 6 7 7 7 7 8 8 9 9 10 10 12 12 12 12 13 13 13 14 14 14 15 15 15 16 18 18 17 19 16 18 16 19 18 18 20 18 19 18 18 19 17 18 18 17 17 19 18 16 20 18
9 11 10 11 13 14 15 17 15 14 14 14 12 12 10 10 11 11 11 10 9 6 5 4 4 3 3 4 4 4 4 5 4 5 6 7 7 7 8 8 9 10 10 10 12 12 12 12 12 13 13 14 14 13 13 14 14 15 15 16 18 15 17 16 17 15 17 15 19 20 20 19 19 20 19 18 18 18 20 19 18 17 16 18 17
10 10 11 13 13 14 15 16 17 18 16 13 13 10 12 11 11 9 8 8 7 7 5 5 4 3 3 3 4 4 4 4 5 6 6 6 7 8 8 9 9 10 10 11 11 12 13 13 12 13 14 14 14 14 14 15 14 14 14 13 15 16 18 18 17 16 14 16 18 20 19 17 16 16 15 13 14 16 17 18 19 18 17 18 16
11 11 12 13 13 13 12 12 10 8 8 10 11 13 12 10 11 11 11 9 8 6 5 4 3 3 4 5 4 4 4 4 5 6 6 6 7 7 7 8 9 10 10 11 12 13 13 13 14 14 14 14 14 15 13 13 13 14 14 15 16 16 17 16 16 17 17 17 19 19 20 20 19 20 19 17 18 19 18 17 17 16 17 16 17
11 12 11 11 10 10 9 7 7 9 10 12 10 11 12 12 11 10 9 8 8 6 5 4 3 3 4 4 4 4 4 4 6 5 6 6 7 7 8 9 9 10 10 12 13 12 12 13 13 14 14 15 15 15 14 13 14 17 16 13 15 16 17 18 17 18 17 15 16 18 19 20 18 21 19 22 19 17 18 17 16 15 14 15 17
11 12 10 10 10 11 11 13 14 15 12 11 12 12 12 11 10 9 9 7 7 5 4 3 3 3 4 3 3 4 4 5 6 5 5 6 7 8 8 9 10 10 10 10 11 12 13 13 14 14 14 14 15 15 14 14 15 16 18 16 17 17 18 18 18 18 18 17 18 17 18 18 15 17 18 19 18 19 18 20 21 15 16 16 16
8 6 6 7 8 8 10 13 14 13 13 13 12 11 11 10 9 8 9 8 6 5 4 3 3 4 3 3 4 4 5 5 4 4 6 7 7 8 8 9 9 9 10 10 11 12 13 13 14 15 15 15 15 15 15 15 17 18 17 19 17 18 18 18 18 18 18 17 17 17 18 17 17 19 18 17 16 17 18 17 18 15 15 16 16
7 9 9 9 10 13 15 15 15 14 10 10 12 12 10 9 8 8 7 7 6 5 4 4 4 4 4 4 4 4 4 4 4 5 7 8 8 8 8 9 9 10 10 11 11 11 13 13 13 14 15 16 16 17 18 18 16 17 18 18 19 19 18 19 18 17 18 18 18 18 18 17 16 15 14 14 14 17 15 15 16 14 13 14 13
10 8 9 14 15 13 11 13 12 13 12 10 11 11 10 9 8 7 8 7 6 5 5 4 4 4 4 4 3 4 3 3 5 5 7 7 8 8 9 9 9 11 11 11 12 12 12 14 14 15 15 16 16 16 18 18 17 16 17 18 18 19 19 18 19 17 18 17 17 18 17 17 19 18 18 18 17 18 16 18 18 14 13 12 16
12 12 10 7 9 14 15 13 13 12 12 11 11 12 10 9 8 7 7 7 6 6 5 4 4 4 3 3 3 3 2 3 4 5 6 7 8 9 9 10 9 10 11 12 13 13 12 13 15 15 15 16 17 17 17 18 18 18 19 18 19 19 19 18 17 19 17 17 17 17 18 17 18 18 18 18 17 19 17 19 18 17 15 15 16
7 8 12 15 16 13 13 15 14 13 12 11 10 12 11 11 10 8 7 6 5 5 5 5 4 4 3 3 2 2 2 3 4 5 6 7 8 8 9 9 10 11 11 12 13 14 14 12 14 14 15 15 17 18 18 17 18 18 17 19 17 18 19 18 20 19 19 17 18 18 19 19 18 17 18 18 19 18 15 18 16 14 14 15 16
11 13 13 14 14 16 16 15 14 13 14 13 12 11 10 9 8 8 7 7 6 6 6 5 5 4 3 2 1 1 2 3 4 5 7 7 8 8 9 10 10 10 10 11 12 13 14 15 14 15 16 16 16 16 14 15 17 19 18 18 19 19 20 20 19 20 18 17 17 18 18 19 20 24 28 26 24 22 16 16 16 14 14 13 15
15 15 16 16 16 14 15 15 15 16 16 15 13 12 11 11 9 8 7 7 6 6 6 6 5 4 3 2 1 1 2 3 4 6 7 7 8 9 9 9 10 10 11 11 12 12 13 16 17 15 14 14 15 12 17 27 26 20 21 19 17 17 18 18 18 18 18 17 20 17 19 27 28 28 28 29 29 30 31 24 19 15 13 14 15
14 15 15 15 14 14 14 16 17 18 18 14 14 13 11 10 8 9 8 7 6 6 6 6 5 4 3 1 0 1 2 3 4 6 6 8 9 8 8 9 9 10 11 11 11 12 14 14 15 17 17 15 13 14 28 29 30 31 23 20 18 18 18 20 17 20 17 17 16 20 17 21 24 23 23 28 28 31 31 31 33 33 27 19 15
16 15 13 13 15 16 18 20 19 18 17 14 15 13 11 10 9 9 8 7 7 7 7 6 5 4 3 2 1 1 3 4 5 6 7 7 7 7 8 8 8 9 9 9 11 13 13 14 14 15 16 16 16 22 30 30 31 31 28 22 18 16 17 15 19 17 18 16 18 18 18 13 17 19 17 17 23 28 29 30 31 31 31 33 31
15 14 15 17 19 20 21 20 17 17 17 14 13 12 12 11 10 9 8 8 7 7 6 6 5 4 3 2 1 1 3 4 5 6 6 6 7 7 7 7 8 8 10 10 13 13 13 15 14 15 16 16 16 24 29 32 31 31 31 27 18 17 16 18 16 19 19 19 17 17 17 15 14 26 21 18 16 18 25 30 32 32 32 32 30
12 15 17 18 16 15 16 19 20 17 15 12 11 13 12 11 9 8 9 8 8 7 6 5 5 4 3 2 0 1 3 4 5 6 6 6 6 6 7 7 8 9 10 11 12 13 14 13 13 15 16 16 17 23 30 31 32 31 31 28 18 18 17 18 18 19 18 19 16 16 16 17 15 18 14 19 15 18 17 18 18 19 20 23 27
11 13 14 16 17 16 15 14 14 16 14 14 12 11 11 9 8 9 7 8 7 6 6 5 5 4 3 1 1 2 4 5 5 6 6 6 6 6 7 7 8 9 10 11 11 13 12 12 12 13 14 15 15 27 30 32 31 31 31 27 16 16 16 17 17 17 17 18 18 16 18 18 19 18 14 18 15 17 16 16 18 20 19 18 16
12 15 16 16 16 19 21 20 15 15 15 15 13 10 10 9 7 8 8 7 6 5 5 5 4 4 3 2 2 3 4 4 5 5 5 6 6 6 8 8 8 9 9 9 10 10 12 13 13 13 14 15 16 28 30 30 32 31 32 18 15 17 18 18 18 17 18 17 17 18 18 18 19 19 21 27 24 19 15 17 18 18 16 16 15
13 14 16 18 19 19 17 15 16 17 19 14 11 11 10 9 8 6 6 6 6 5 5 6 5 4 4 3 3 3 4 4 4 5 5 5 7 7 7 6 8 10 10 10 10 10 10 12 14 13 14 15 15 22 29 31 30 31 25 15 16 15 16 18 18 18 17 17 17 17 18 17 18 18 23 27 27 26 18 18 18 17 15 15 14
8 6 7 10 10 11 13 18 20 18 17 14 14 11 11 9 8 8 7 7 6 5 6 5 5 4 4 4 3 3 4 4 4 4 5 6 6 6 6 6 9 10 11 10 10 10 9 10 13 15 13 15 15 22 31 30 30 29 26 19 16 16 16 17 17 18 17 17 19 27 25 20 20 18 24 27 27 23 17 17 17 16 16 15 15
11 14 14 14 14 17 20 20 21 20 14 12 13 11 10 9 8 9 7 6 6 5 6 5 5 4 4 3 3 4 4 4 4 4 4 5 6 6 6 7 7 8 10 10 10 10 10 10 12 14 19 19 15 19 27 28 29 29 25 16 16 14 16 16 17 18 17 17 17 19 26 25 22 23 29 28 29 25 17 17 15 15 17 17 15
7 8 13 16 18 19 21 21 22 17 14 14 12 9 9 9 8 7 7 6 6 5 5 5 4 4 3 3 3 3 4 4 4 4 4 4 5 5 6 7 7 7 9 10 10 9 13 13 12 13 11 12 16 16 19 30 29 30 31 20 15 15 16 18 17 16 17 17 17 17 19 25 29 28 29 30 29 28 19 16 14 15 15 17 12
12 13 13 17 22 26 27 24 18 14 13 12 11 11 10 8 9 8 8 6 5 6 6 4 3 3 3 4 3 3 4 4 3 4 4 4 4 6 7 6 7 7 8 9 11 12 11 12 13 12 11 13 13 19 20 29 30 30 32 28 15 16 17 17 16 17 17 18 17 16 15 21 26 26 26 28 29 30 27 18 17 16 16 12 11
9 13 20 18 15 17 19 16 10 12 12 12 11 10 9 10 9 7 7 6 6 6 5 4 3 3 3 3 4 3 3 2 2 3 4 5 4 5 6 7 6 7 10 10 11 9 11 13 11 11 14 16 18 23 19 24 29 31 31 33 20 17 19 17 17 16 17 17 17 16 16 20 24 25 25 26 28 28 30 18 18 25 26 26 19
16 16 17 19 19 19 16 13 11 10 11 11 11 11 10 9 7 9 8 7 7 6 5 4 3 4 4 4 3 2 1 1 2 2 4 6 5 6 7 6 7 8 9 11 11 11 13 12 10 12 13 14 14 13 23 21 29 32 33 31 32 26 30 20 16 17 17 18 17 17 19 26 27 26 26 26 25 27 24 18 25 26 27 28 22
13 20 22 20 22 19 14 11 11 9 9 9 10 11 10 9 9 8 8 7 7 6 5 3 4 4 4 3 2 0 0 1 2 3 3 6 6 6 6 5 6 7 8 9 10 11 12 11 13 13 12 12 13 13 20 28 28 34 32 33 31 32 31 19 18 17 17 18 18 18 19 28 28 27 27 25 24 23 18 22 23 25 26 23 14
19 21 17 22 27 23 13 12 10 11 8 7 6 10 12 12 9 9 9 8 7 6 5 6 5 4 3 3 1 2 1 1 2 2 4 5 6 5 6 5 6 7 8 9 10 11 10 11 12 13 13 14 17 18 18 23 32 31 33 32 32 32 30 29 19 15 17 17 24 33 35 33 31 29 28 27 22 22 26 24 24 23 22 12 12
15 14 16 16 16 16 13 15 11 10 8 7 6 8 17 11 10 9 9 8 8 8 6 6 4 3 3 2 5 4 3 3 3 2 3 3 5 5 4 6 6 6 7 8 10 9 11 13 13 13 15 17 19 15 14 15 20 27 28 31 34 30 28 29 26 20 27 33 34 33 35 33 30 26 17 12 8 10 19 22 23 21 13 12 12
22 18 18 18 17 15 13 14 14 10 8 8 7 5 5 9 10 9 9 9 10 9 6 5 4 3 2 5 7 4 3 3 3 3 3 3 3 3 4 4 5 6 7 8 9 10 11 12 13 14 15 17 15 11 15 19 16 17 19 22 22 19 24 25 17 16 20 19 24 25 18 19 17 20 19 16 14 14 13 13 11 11 11 11 12
17 18 15 13 16 17 16 14 13 11 9 8 7 7 7 8 9 9 9 9 8 6 8 7 5 4 4 6 6 5 6 3 3 3 4 6 4 4 5 4 5 7 7 8 8 10 10 11 13 13 14 15 13 15 17 15 17 18 18 18 18 17 17 15 17 18 18 19 18 20 18 10 10 10 10 9 9 8 9 10 9 9 9 9 11
21 20 22 20 16 15 15 15 12 11 10 9 9 7 9 10 9 9 10 10 8 8 6 6 5 6 7 5 5 4 4 5 6 3 1 3 4 5 5 7 7 7 7 9 8 10 11 9 10 11 13 12 14 15 15 25 23 28 25 22 19 17 16 15 20 29 20 16 13 13 14 15 13 10 5 5 6 7 8 8 9 9 9 8 9
14 12 13 12 11 16 17 14 11 11 11 10 10 8 8 8 9 9 9 11 12 9 8 7 6 7 7 6 5 4 4 5 5 7 9 6 5 6 5 6 8 15 19 19 16 11 12 12 11 10 12 13 15 17 30 33 32 32 33 34 31 30 28 23 25 30 20 12 13 12 13 13 13 12 12 10 7 6 7 7 7 9 9 9 9
19 17 15 15 15 11 14 14 12 12 11 11 10 10 9 9 9 9 9 9 10 9 8 7 6 6 6 6 5 4 3 3 3 4 4 7 12 8 5 7 11 16 17 20 19 19 20 21 15 10 13 23 26 29 30 31 32 33 33 32 33 32 30 29 27 20 14 13 13 13 14 13 13 12 11 10 10 11 11 7 6 6 6 8 8
Wind_Direction
194 194 188 192 194 191 185 178 178 175 172 170 166 172 171 168 163 181 184 169 162 176 194 197 209 218 218 219 228 240 254 254 248 252 247 247 252 256 255 264 277 273 276 280 287 295 298 302 303 306 307 306 304 303 305 303 304 306 308 306 309 311 309 308 310 312 308 301 283 281 287 274 274 273 269 269 269 268 269 268 267 264 261 261 262
166 192 192 188 196 192 183 183 176 174 187 172 174 178 175 173 174 179 173 171 179 183 184 185 185 189 200 237 239 247 268 263 262 237 242 247 255 258 258 264 267 269 277 282 288 293 302 305 305 302 308 301 293 291 295 297 299 305 313 310 302 305 300 305 307 314 303 316 320 316 299 284 259 253 252 258 254 255 258 260 262 262 261 262 265
195 203 193 195 194 192 186 189 190 185 176 181 183 174 177 176 183 178 172 174 185 182 173 196 198 199 181 223 217 271 232 254 264 266 273 269 254 247 247 255 259 264 268 272 275 276 278 284 287 290 287 294 299 296 296 299 302 307 311 310 311 296 283 285 287 309 300 309 296 294 300 327 305 239 244 240 248 255 258 259 260 263 266 268 273
206 198 197 193 193 193 191 193 189 184 182 185 185 181 176 178 182 178 179 180 181 187 188 199 192 183 183 211 267 246 276 296 289 289 291 294 281 260 268 271 271 277 278 281 281 281 289 293 296 294 294 293 293 296 295 293 300 304 305 302 303 303 294 287 259 265 271 307 310 269 303 310 303 310 4 292 267 265 264 266 264 264 269 271 270
207 199 200 195 194 199 196 189 178 190 190 189 186 184 181 184 183 179 177 182 183 181 189 180 166 170 183 298 297 297 273 275 299 282 268 269 275 276 271 272 277 278 278 274 284 294 297 297 297 297 296 292 292 291 294 293 296 293 293 290 289 290 297 289 280 253 248 238 263 303 302 261 247 291 330 293 269 264 260 258 260 263 270 276 276
203 200 199 197 199 196 191 189 192 194 195 194 184 186 180 180 178 180 174 177 182 186 179 163 181 182 185 212 255 255 274 260 252 268 280 268 260 261 263 253 257 264 269 281 287 296 296 290 288 289 287 286 284 285 289 293 290 290 286 285 283 275 279 292 285 258 245 238 237 244 245 272 299 302 320 295 314 250 274 266 265 265 270 271 269
211 208 201 198 200 193 195 197 197 194 197 182 187 185 185 181 178 175 174 177 180 179 167 164 170 185 195 207 217 234 262 268 243 245 261 265 263 264 270 270 265 274 283 283 284 276 276 275 271 271 273 275 278 280 282 282 284 282 283 276 276 278 276 278 280 282 274 247 236 242 252 258 262 279 278 294 295 294 218 270 272 268 265 266 271
201 205 202 201 193 194 197 200 195 196 180 183 187 186 183 181 175 177 174 174 175 168 168 167 176 188 192 205 211 219 228 260 269 270 262 268 273 273 283 283 282 283 290 293 289 289 287 280 276 277 278 280 282 279 280 281 281 275 270 271 272 268 268 267 280 278 271 278 227 248 252 255 256 257 258 264 273 287 291 257 266 274 275 270 266
200 202 202 196 196 200 201 196 195 182 186 187 187 184 184 177 170 163 175 173 170 169 166 179 185 183 190 197 223 228 235 249 258 259 269 266 270 275 272 275 278 278 280 289 289 289 288 288 289 288 288 287 285 282 280 279 277 278 277 273 268 270 263 266 270 271 268 267 272 263 260 258 258 254 255 254 258 273 276 282 280 278 272 266 263
210 211 202 200 200 200 198 190 182 192 188 184 184 181 177 163 166 166 176 177 170 173 168 175 184 181 185 200 220 244 241 257 256 262 259 260 267 272 274 273 278 283 283 280 284 283 285 289 290 289 287 286 285 282 282 282 279 277 275 272 273 270 266 261 260 265 266 267 259 265 265 265 260 257 251 251 257 252 266 277 278 279 277 270 262
210 207 203 203 198 194 182 190 189 184 188 182 187 182 170 166 166 170 179 169 171 170 167 181 174 176 190 203 216 237 247 257 273 271 269 269 272 274 274 279 281 287 293 287 281 287 285 283 287 289 288 285 284 283 282 283 283 282 281 277 272 266 266 263 263 262 264 265 264 260 263 262 259 264 264 259 256 259 261 264 271 269 268 274 263
202 190 194 186 180 186 183 193 187 187 183 191 187 179 173 167 165 171 170 172 172 168 161 177 169 180 190 202 217 229 240 250 260 272 276 280 283 289 290 293 297 298 295 295 290 294 293 291 288 288 285 283 281 282 283 284 285 285 282 278 275 271 266 263 260 262 258 263 263 259 258 258 257 254 257 259 258 261 263 269 273 279 275 269 274
189 193 186 186 188 184 191 194 183 188 194 188 184 179 173 167 169 167 178 175 174 161 168 176 170 190 195 206 221 232 239 245 255 263 269 274 284 288 298 304 309 307 303 300 297 304 303 298 297 291 290 287 286 287 286 286 285 283 280 278 273 270 267 262 262 260 260 259 264 262 260 257 256 252 254 256 257 258 259 269 268 276 282 281 275
196 192 194 193 192 194 194 190 191 192 191 186 182 179 174 168 172 171 175 170 160 156 169 175 191 198 198 211 223 232 245 248 254 261 267 271 279 286 293 297 297 289 294 290 296 299 294 290 290 288 285 285 286 286 287 287 285 282 280 278 276 271 269 266 264 265 265 263 266 265 264 262 260 264 269 270 272 269 261 261 275 275 274 276 275
199 198 199 198 198 194 193 193 192 192 187 183 182 179 170 173 167 170 161 166 156 169 167 184 194 196 204 216 226 237 247 254 258 263 272 283 286 288 289 291 287 290 289 293 296 291 288 287 285 286 287 287 288 287 286 285 281 280 276 276 274 271 270 268 265 266 270 266 264 263 265 265 262 262 257 257 261 262 263 263 268 276 277 271 272
202 207 207 209 201 195 194 194 195 190 186 184 182 176 175 172 167 167 163 162 163 166 180 181 194 190 206 221 231 238 256 261 268 269 277 282 286 288 290 286 286 291 292 294 292 289 289 288 287 284 286 285 285 286 285 282 282 280 278 275 274 271 273 269 267 271 271 267 267 263 262 261 261 260 257 253 253 253 256 260 259 260 267 275 274
204 207 208 203 196 202 198 193 191 187 185 188 183 176 173 162 161 157 157 148 164 171 177 177 182 196 219 223 231 244 248 261 269 281 288 286 285 286 285 285 288 289 295 296 292 290 288 290 292 290 288 286 284 282 281 280 281 280 278 280 275 275 272 269 273 272 268 270 265 263 261 261 260 258 251 248 249 249 251 254 250 250 252 262 270
212 215 210 201 200 199 197 197 193 191 188 181 177 173 170 164 160 157 152 164 175 165 170 173 190 208 223 231 239 242 258 264 272 288 292 289 289 287 288 293 295 298 296 294 294 295 293 292 290 290 290 287 286 285 283 282 283 281 280 281 278 281 277 275 272 272 272 268 265 264 259 258 258 256 260 262 263 261 260 251 246 246 248 256 262
208 209 204 202 200 200 197 196 192 189 184 178 166 161 157 154 152 152 161 167 162 157 163 171 186 204 215 238 246 257 261 269 284 291 287 286 289 289 293 294 297 298 296 297 297 297 298 297 295 294 294 293 291 289 290 288 287 284 283 284 284 281 278 276 274 271 272 267 267 263 261 260 260 260 255 252 251 248 248 253 257 251 248 250 259
213 207 209 207 204 202 196 189 186 185 179 174 159 146 152 150 145 144 138 140 140 156 164 177 192 201 235 245 254 259 273 286 296 289 286 288 290 295 297 299 296 299 296 297 299 300 301 301 299 298 298 297 295 294 293 289 287 281 281 281 282 283 281 282 279 274 269 269 269 266 263 263 261 261 262 262 258 251 246 246 244 247 251 252 254
213 211 210 206 203 199 196 192 185 169 160 152 156 160 148 144 145 148 149 154 157 164 160 174 184 212 233 248 259 268 282 288 282 280 285 289 294 296 295 294 297 295 301 304 303 302 300 299 300 299 299 297 296 296 296 292 289 286 284 283 285 284 283 282 280 276 272 269 269 267 267 262 262 263 266 267 266 266 266 259 254 252 251 249 254
214 215 209 202 199 193 179 166 163 163 166 163 160 149 151 153 149 144 142 151 153 161 161 172 192 214 234 252 263 280 284 284 283 290 293 298 299 299 298 300 298 300 305 303 301 302 301 303 302 301 299 297 294 293 295 291 292 294 287 287 287 286 284 282 282 280 277 274 272 272 269 267 263 261 261 262 260 263 265 266 254 248 249 255 253
215 213 206 198 192 186 180 178 179 178 170 159 155 157 154 149 145 149 143 153 148 150 149 174 200 220 245 255 270 278 283 282 286 293 298 304 303 301 303 303 305 306 305 301 302 302 302 302 299 298 298 295 295 295 294 291 290 290 290 287 287 283 281 280 281 279 278 275 273 273 273 270 267 265 264 263 260 258 256 258 262 260 257 256 256
224 210 195 189 173 165 168 179 181 180 173 171 159 150 147 148 146 142 148 144 140 146 156 181 205 229 242 252 256 262 268 271 290 295 301 302 300 300 304 303 306 305 305 303 301 302 303 301 298 297 295 294 296 296 296 291 291 289 288 288 285 282 279 277 276 278 277 276 273 273 273 272 269 265 262 261 254 251 250 252 254 255 255 257 258
214 202 192 172 170 178 189 187 185 180 169 162 160 155 148 147 145 146 141 137 136 148 159 186 207 228 236 238 248 257 262 282 296 303 301 301 302 305 307 308 308 306 304 304 301 301 300 299 296 297 297 295 293 294 297 294 286 290 285 283 284 282 278 277 273 273 273 274 273 271 270 273 278 281 282 284 281 282 281 267 253 252 254 256 260
211 195 178 189 192 191 187 188 183 180 174 160 154 151 146 143 145 139 137 140 148 149 169 186 202 216 224 233 244 253 272 302 310 306 304 307 309 309 308 307 308 304 303 298 299 298 295 292 292 293 294 294 295 296 295 291 287 281 285 284 280 280 279 277 274 270 270 267 270 271 271 270 271 273 273 273 279 280 278 279 282 274 265 266 265
206 197 195 179 184 196 194 186 185 176 171 165 156 149 145 141 139 140 138 143 150 155 170 183 197 210 222 231 242 262 304 313 316 311 309 309 308 307 305 305 306 301 299 300 297 293 288 287 287 290 291 293 293 290 292 292 290 288 288 280 284 280 276 276 271 267 262 265 262 263 263 264 267 267 268 270 270 268 268 270 267 273 280 275 264
198 189 189 196 198 191 188 185 177 176 165 160 155 151 151 150 148 144 140 141 147 155 168 184 190 206 216 232 247 292 326 323 316 312 309 307 304 304 305 303 302 300 299 298 296 293 291 286 286 285 286 291 294 298 296 291 293 288 288 286 278 282 275 272 271 264 263 257 258 256 260 257 255 259 265 263 263 263 267 265 263 262 264 270 275
199 206 201 198 194 192 187 181 180 167 168 160 151 144 135 134 136 143 145 150 153 158 175 181 189 196 209 222 263 322 337 323 321 313 308 305 303 301 300 299 296 296 295 291 291 292 294 294 294 301 303 306 303 296 295 296 294 291 287 283 282 273 273 269 268 268 255 253 253 258 255 258 253 258 261 258 257 260 261 264 265 259 256 261 265
207 207 205 201 198 188 184 179 173 176 170 161 156 154 154 151 153 152 150 153 153 169 174 182 186 192 197 209 269 316 324 329 316 307 302 300 298 297 294 295 294 293 292 290 291 293 296 308 308 306 304 302 298 296 293 294 294 294 294 290 285 283 281 273 269 264 260 254 259 250 257 256 255 262 265 261 259 261 261 258 261 264 261 260 258
212 211 205 199 191 186 180 180 182 179 175 167 159 152 150 150 152 154 156 161 159 168 178 176 183 182 187 193 191 345 341 319 305 299 293 291 294 291 291 290 290 289 290 292 297 301 311 308 307 310 308 303 296 299 297 297 298 297 297 294 291 286 277 278 271 272 260 259 254 256 249 257 250 255 266 266 265 262 263 262 259 258 258 256 265
215 210 198 190 187 185 185 187 184 179 172 166 158 155 154 159 157 159 157 157 164 173 173 174 178 172 176 152 129 353 320 301 296 287 285 287 285 284 285 288 288 293 295 298 302 307 306 308 306 304 304 297 294 297 300 299 300 299 299 296 292 287 283 278 277 270 269 258 260 258 260 248 255 251 250 252 261 263 265 266 264 260 256 255 253
214 199 195 191 191 190 189 187 178 176 176 172 151 151 163 158 157 156 147 160 170 171 168 170 171 168 161 139 108 315 296 285 281 279 281 278 279 283 286 291 295 299 302 305 309 306 304 307 301 299 297 295 290 296 301 301 301 302 302 301 296 288 283 277 273 271 267 259 260 260 263 252 251 252 256 249 250 254 259 262 264 263 262 257 255
209 199 195 196 193 192 189 184 180 176 169 149 155 148 141 139 136 142 155 163 165 166 167 170 165 163 144 134 127 256 271 275 274 277 278 283 283 286 293 295 299 306 306 306 306 303 303 300 299 297 296 295 291 296 301 304 307 306 306 305 297 294 288 285 283 282 271 257 246 256 259 257 254 251 241 247 241 252 256 262 262 256 252 255 254
202 196 197 193 189 183 176 168 169 165 153 141 133 131 126 130 146 152 161 159 163 159 167 166 161 154 140 147 189 250 264 269 278 277 280 281 286 294 302 309 313 312 312 311 308 307 299 297 294 293 292 289 289 296 304 308 310 310 309 309 301 298 296 295 294 293 292 285 266 256 256 258 261 254 243 241 239 245 246 251 259 261 254 248 244
203 196 195 185 180 178 177 178 160 145 140 139 135 135 130 140 144 152 154 162 159 162 162 160 160 153 152 164 191 240 253 269 278 282 285 296 305 311 315 315 311 307 304 299 299 295 295 298 294 292 292 289 288 301 307 309 313 314 314 311 304 301 301 297 293 290 284 280 275 264 258 259 256 252 248 246 248 246 246 250 253 260 257 246 241
208 193 192 186 183 178 168 147 142 139 137 139 133 131 134 139 149 155 156 159 161 167 167 165 164 154 161 175 212 230 254 269 271 285 298 311 321 318 317 318 309 310 306 306 296 293 291 292 296 293 290 293 289 300 310 314 315 315 316 311 311 306 300 296 292 292 289 286 281 272 262 256 253 250 247 247 246 247 249 248 250 254 261 266 255
188 168 158 154 148 137 139 139 134 134 134 132 136 141 142 145 150 155 161 164 168 174 170 164 160 161 174 187 204 227 248 265 274 285 304 311 309 305 308 314 311 309 306 299 295 292 285 285 291 295 295 293 297 306 312 315 317 317 319 316 311 304 297 297 297 294 291 284 280 278 273 263 256 250 250 246 246 247 247 246 247 251 253 253 257
166 159 151 151 149 143 131 134 131 134 147 139 138 140 143 147 153 160 163 162 174 177 169 162 160 165 183 193 210 226 241 258 276 288 297 304 308 311 305 305 298 297 295 295 292 291 291 293 295 294 297 303 294 300 308 316 319 320 320 316 311 304 300 297 295 293 289 286 281 276 270 264 262 255 249 249 248 246 244 244 248 246 243 243 244
140 141 149 139 125 124 135 147 152 147 139 143 142 144 143 145 153 154 159 174 178 166 150 139 147 167 191 206 221 220 234 241 275 294 293 291 301 302 308 307 302 298 295 297 291 290 301 304 302 298 294 300 306 305 309 318 321 321 321 318 309 302 297 295 293 291 292 288 285 281 273 265 267 267 263 253 245 244 242 240 247 250 245 243 241
147 138 130 135 149 148 151 153 143 137 142 146 147 143 146 149 149 154 175 173 150 139 131 136 150 185 204 215 232 221 233 251 252 279 292 302 304 307 306 302 301 299 292 295 297 303 294 297 300 293 304 308 306 316 314 319 322 322 320 320 309 305 301 297 298 295 294 295 292 285 281 268 268 265 264 262 255 247 242 238 238 245 249 257 255
127 134 136 138 147 128 107 105 129 137 142 148 150 142 142 147 154 166 163 142 133 134 127 132 178 203 209 225 222 237 241 245 281 297 312 310 307 303 297 301 298 298 299 295 302 295 301 298 291 307 319 317 314 316 318 321 325 324 323 323 321 311 309 305 302 297 296 294 289 287 281 278 276 271 268 265 257 250 246 243 239 242 246 244 243
136 144 152 144 136 145 145 140 146 146 149 155 148 138 144 152 153 158 140 139 133 127 129 151 189 210 219 223 231 214 247 259 305 315 316 310 313 313 310 306 300 303 300 304 305 298 302 300 305 319 318 317 313 312 325 328 329 329 327 326 323 319 316 313 304 298 299 296 295 288 284 282 279 275 269 266 258 250 245 242 242 242 242 244 243
10 133 152 150 136 123 130 140 145 148 152 158 157 140 149 145 150 139 134 130 124 123 130 159 198 221 214 223 210 183 224 354 327 329 328 308 315 309 306 299 303 304 304 306 307 307 305 305 322 321 318 318 323 322 326 331 331 327 326 327 326 323 320 315 309 302 299 293 290 285 280 280 277 273 271 268 262 251 242 242 246 243 240 239 238
158 165 153 151 146 147 136 136 145 149 151 149 170 140 140 141 141 139 142 135 130 122 132 177 201 206 206 205 162 85 42 31 349 349 334 317 312 318 311 312 308 306 304 304 304 305 305 325 323 324 321 323 330 329 328 327 325 329 331 330 330 327 324 321 313 303 295 291 288 287 283 279 277 274 270 266 261 251 243 244 245 246 246 242 239
133 142 155 148 111 105 128 136 142 150 145 153 152 162 148 146 135 141 136 130 125 124 158 187 196 203 199 173 94 73 60 35 9 338 315 289 289 298 295 300 302 301 303 294 301 300 325 332 326 326 328 326 325 317 324 327 330 332 331 331 332 330 326 322 318 308 304 302 296 290 282 275 273 269 265 255 224 225 238 243 245 242 240 239 235
167 160 133 142 144 140 145 142 142 154 148 149 144 146 120 129 137 137 128 124 122 138 157 165 185 198 163 66 59 46 37 51 14 341 310 289 292 276 287 289 296 305 301 301 294 320 329 329 330 327 327 326 316 317 331 332 329 335 335 333 335 330 328 325 324 321 322 314 310 304 279 264 257 260 262 254 227 222 232 241 240 237 237 234 225
139 143 146 136 149 147 146 146 145 153 152 146 146 138 132 130 134 131 123 123 134 154 155 167 172 181 92 67 66 32 25 11 16 357 321 321 305 308 304 294 309 306 296 296 314 327 330 330 329 325 325 323 318 334 334 332 339 337 336 336 334 332 331 331 333 334 333 320 319 326 325 281 261 252 253 234 215 214 224 235 236 238 238 235 233
156 162 161 163 159 149 148 145 141 145 145 145 143 137 141 141 135 130 133 135 143 153 152 149 159 155 93 80 69 54 34 10 339 344 271 239 266 290 298 305 306 291 302 322 319 328 330 326 326 325 326 315 330 338 336 339 340 341 342 343 341 338 334 337 340 344 336 323 327 340 354 353 355 327 260 206 200 216 221 229 238 242 238 234 230
130 128 156 145 146 141 144 140 139 142 145 145 144 145 146 140 133 134 143 142 143 144 148 138 154 132 110 90 71 55 32 23 359 344 336 327 230 260 304 315 315 329 333 334 338 334 336 336 329 334 333 330 334 334 336 341 344 345 347 350 350 346 341 344 349 350 342 337 344 351 355 353 351 358 1 350 320 265 236 229 237 232 234 236 230
149 143 156 159 160 145 129 134 141 146 146 148 146 150 144 139 141 151 155 151 149 140 135 141 136 116 108 100 97 80 66 35 1 344 342 335 332 328 313 328 338 339 337 336 339 341 343 343 341 334 333 336 337 340 343 345 347 348 351 354 355 350 347 350 354 357 349 360 354 357 356 351 352 351 356 347 343 342 331 302 247 225 233 229 228